Year,Month,Day,Hour,Minute,Value (Times are PST for temperature in C)
2016,12,13,09,07,-0.20
2016,12,13,09,08,-0.20
2016,12,13,09,09,-0.20
2016,12,13,09,10,-0.10
2016,12,13,09,11,-0.10
2016,12,13,09,12,-0.10
2016,12,13,09,13,-0.10
2016,12,13,09,14,-0.10
2016,12,13,09,15,-0.10
2016,12,13,09,16,0.00
2016,12,13,09,17,0.10
2016,12,13,09,18,0.10
2016,12,13,09,19,0.10
2016,12,13,09,20,0.10
2016,12,13,09,21,0.10
2016,12,13,09,22,0.20
2016,12,13,09,23,0.20
2016,12,13,09,24,0.20
2016,12,13,09,25,0.20
2016,12,13,09,26,0.30
2016,12,13,09,27,0.30
2016,12,13,09,28,0.30
2016,12,13,09,29,0.30
2016,12,13,09,30,0.40
2016,12,13,09,31,0.40
2016,12,13,09,32,0.40
2016,12,13,09,33,0.40
2016,12,13,09,34,0.40
2016,12,13,09,35,0.40
2016,12,13,09,36,0.40
2016,12,13,09,37,0.40
2016,12,13,09,38,0.40
2016,12,13,09,39,0.50
2016,12,13,09,40,0.50
2016,12,13,09,41,0.50
2016,12,13,09,42,0.50
2016,12,13,09,43,0.60
2016,12,13,09,44,0.60
2016,12,13,09,45,0.60
2016,12,13,09,46,0.60
2016,12,13,09,47,0.70
2016,12,13,09,48,0.70
2016,12,13,09,49,0.70
2016,12,13,09,50,0.70
2016,12,13,09,51,0.80
2016,12,13,09,52,0.80
2016,12,13,09,53,0.80
2016,12,13,09,54,0.80
2016,12,13,09,55,0.80
2016,12,13,09,56,0.80
2016,12,13,09,57,0.80
2016,12,13,09,58,0.80
2016,12,13,09,59,0.90
2016,12,13,10,00,0.90
2016,12,13,10,01,0.90
2016,12,13,10,02,0.90
2016,12,13,10,03,1.00
2016,12,13,10,04,1.00
2016,12,13,10,05,1.00
2016,12,13,10,06,1.10
2016,12,13,10,07,1.10
2016,12,13,10,08,1.10
2016,12,13,10,09,1.20
2016,12,13,10,10,1.20
2016,12,13,10,11,1.20
2016,12,13,10,12,1.30
2016,12,13,10,13,1.30
2016,12,13,10,14,1.30
2016,12,13,10,15,1.30
2016,12,13,10,16,1.30
2016,12,13,10,17,1.30
2016,12,13,10,18,1.30
2016,12,13,10,19,1.30
2016,12,13,10,20,1.30
2016,12,13,10,21,1.30
2016,12,13,10,22,1.30
2016,12,13,10,23,1.30
2016,12,13,10,24,1.40
2016,12,13,10,25,1.40
2016,12,13,10,26,1.50
2016,12,13,10,27,1.50
2016,12,13,10,28,1.60
2016,12,13,10,29,1.60
2016,12,13,10,30,1.60
2016,12,13,10,31,1.70
2016,12,13,10,32,1.70
2016,12,13,10,33,1.70
2016,12,13,10,34,1.70
2016,12,13,10,35,1.70
2016,12,13,10,36,1.70
2016,12,13,10,37,1.70
2016,12,13,10,38,1.70
2016,12,13,10,39,1.80
2016,12,13,10,40,1.80
2016,12,13,10,41,1.80
2016,12,13,10,42,1.80
2016,12,13,10,43,1.80
2016,12,13,10,44,1.80
2016,12,13,10,45,1.80
2016,12,13,10,46,1.80
2016,12,13,10,47,1.80
2016,12,13,10,48,1.80
2016,12,13,10,49,1.80
2016,12,13,10,50,1.80
2016,12,13,10,51,1.80
2016,12,13,10,52,1.80
2016,12,13,10,53,1.80
2016,12,13,10,54,1.90
2016,12,13,10,55,1.90
2016,12,13,10,56,2.00
2016,12,13,10,57,2.00
2016,12,13,10,58,2.00
2016,12,13,10,59,2.00
2016,12,13,11,00,2.00
2016,12,13,11,01,2.00
2016,12,13,11,02,2.00
2016,12,13,11,03,2.00
2016,12,13,11,04,2.00
2016,12,13,11,05,2.00
2016,12,13,11,06,2.00
2016,12,13,11,07,2.00
2016,12,13,11,08,1.90
2016,12,13,11,09,2.00
2016,12,13,11,10,2.00
2016,12,13,11,11,2.10
2016,12,13,11,12,2.10
2016,12,13,11,13,2.10
2016,12,13,11,14,2.20
2016,12,13,11,15,2.20
2016,12,13,11,16,2.20
2016,12,13,11,17,2.20
2016,12,13,11,18,2.20
2016,12,13,11,19,2.20
2016,12,13,11,20,2.20
2016,12,13,11,21,2.20
2016,12,13,11,22,2.20
2016,12,13,11,23,2.20
2016,12,13,11,24,2.20
2016,12,13,11,25,2.20
2016,12,13,11,26,2.20
2016,12,13,11,27,2.20
2016,12,13,11,28,2.20
2016,12,13,11,29,2.20
2016,12,13,11,30,2.20
2016,12,13,11,31,2.20
2016,12,13,11,32,2.20
2016,12,13,11,33,2.20
2016,12,13,11,34,2.20
2016,12,13,11,35,2.20
2016,12,13,11,36,2.20
2016,12,13,11,37,2.20
2016,12,13,11,38,2.20
2016,12,13,11,39,2.20
2016,12,13,11,40,2.20
2016,12,13,11,41,2.20
2016,12,13,11,42,2.30
2016,12,13,11,43,2.30
2016,12,13,11,44,2.40
2016,12,13,11,45,2.40
2016,12,13,11,46,2.40
2016,12,13,11,47,2.50
2016,12,13,11,48,2.50
2016,12,13,11,49,2.50
2016,12,13,11,50,2.40
2016,12,13,11,51,2.40
2016,12,13,11,52,2.40
2016,12,13,11,53,2.30
2016,12,13,11,54,2.30
2016,12,13,11,55,2.40
2016,12,13,11,56,2.40
2016,12,13,11,57,2.40
2016,12,13,11,58,2.40
2016,12,13,11,59,2.40
2016,12,13,12,00,2.40
2016,12,13,12,01,2.30
2016,12,13,12,02,2.30
2016,12,13,12,03,2.30
2016,12,13,12,04,2.30
2016,12,13,12,05,2.30
2016,12,13,12,06,2.30
2016,12,13,12,07,2.20
2016,12,13,12,08,2.20
2016,12,13,12,09,2.30
2016,12,13,12,10,2.30
2016,12,13,12,11,2.30
2016,12,13,12,12,2.30
2016,12,13,12,13,2.30
2016,12,13,12,14,2.30
2016,12,13,12,15,2.30
2016,12,13,12,16,2.40
2016,12,13,12,17,2.40
2016,12,13,12,18,2.40
2016,12,13,12,19,2.40
2016,12,13,12,20,2.40
2016,12,13,12,21,2.50
2016,12,13,12,22,2.50
2016,12,13,12,23,2.50
2016,12,13,12,24,2.50
2016,12,13,12,25,2.50
2016,12,13,12,26,2.40
2016,12,13,12,27,2.40
2016,12,13,12,28,2.40
2016,12,13,12,29,2.40
2016,12,13,12,30,2.40
2016,12,13,12,31,2.40
2016,12,13,12,32,2.40
2016,12,13,12,33,2.40
2016,12,13,12,34,2.50
2016,12,13,12,35,2.50
2016,12,13,12,36,2.50
2016,12,13,12,37,2.50
2016,12,13,12,38,2.50
2016,12,13,12,39,2.50
2016,12,13,12,40,2.50
2016,12,13,12,41,2.50
2016,12,13,12,42,2.60
2016,12,13,12,43,2.60
2016,12,13,12,44,2.60
2016,12,13,12,45,2.60
2016,12,13,12,46,2.50
2016,12,13,12,47,2.50
2016,12,13,12,48,2.50
2016,12,13,12,49,2.60
2016,12,13,12,50,2.60
2016,12,13,12,51,2.60
2016,12,13,12,52,2.60
2016,12,13,12,53,2.60
2016,12,13,12,54,2.60
2016,12,13,12,55,2.50
2016,12,13,12,56,2.50
2016,12,13,12,57,2.50
2016,12,13,12,58,2.50
2016,12,13,12,59,2.50
2016,12,13,13,00,2.60
2016,12,13,13,01,2.60
2016,12,13,13,02,2.70
2016,12,13,13,03,2.70
2016,12,13,13,04,2.70
2016,12,13,13,05,2.70
2016,12,13,13,06,2.70
2016,12,13,13,07,2.70
2016,12,13,13,08,2.70
2016,12,13,13,09,2.70
2016,12,13,13,10,2.70
2016,12,13,13,11,2.80
2016,12,13,13,12,2.80
2016,12,13,13,13,2.90
2016,12,13,13,14,2.90
2016,12,13,13,15,2.90
2016,12,13,13,16,2.90
2016,12,13,13,17,2.90
2016,12,13,13,18,2.80
2016,12,13,13,19,2.80
2016,12,13,13,20,2.70
2016,12,13,13,21,2.70
2016,12,13,13,22,2.70
2016,12,13,13,23,2.70
2016,12,13,13,24,2.60
2016,12,13,13,25,2.60
2016,12,13,13,26,2.70
2016,12,13,13,27,2.70
2016,12,13,13,28,2.70
2016,12,13,13,29,2.70
2016,12,13,13,30,2.70
2016,12,13,13,31,2.70
2016,12,13,13,32,2.70
2016,12,13,13,33,2.70
2016,12,13,13,34,2.70
2016,12,13,13,35,2.70
2016,12,13,13,36,2.70
2016,12,13,13,37,2.80
2016,12,13,13,38,2.70
2016,12,13,13,39,2.70
2016,12,13,13,40,2.70
2016,12,13,13,41,2.70
2016,12,13,13,42,2.70
2016,12,13,13,43,2.70
2016,12,13,13,44,2.70
2016,12,13,13,45,2.70
2016,12,13,13,46,2.70
2016,12,13,13,47,2.70
2016,12,13,13,48,2.70
2016,12,13,13,49,2.70
2016,12,13,13,50,2.70
2016,12,13,13,51,2.70
2016,12,13,13,52,2.70
2016,12,13,13,53,2.70
2016,12,13,13,54,2.70
2016,12,13,13,55,2.70
2016,12,13,13,56,2.70
2016,12,13,13,57,2.70
2016,12,13,13,58,2.70
2016,12,13,13,59,2.70
2016,12,13,14,00,2.70
2016,12,13,14,01,2.70
2016,12,13,14,02,2.70
2016,12,13,14,03,2.70
2016,12,13,14,04,2.70
2016,12,13,14,05,2.70
2016,12,13,14,06,2.70
2016,12,13,14,07,2.60
2016,12,13,14,08,2.60
2016,12,13,14,09,2.60
2016,12,13,14,10,2.60
2016,12,13,14,11,2.60
2016,12,13,14,12,2.60
2016,12,13,14,13,2.60
2016,12,13,14,14,2.70
2016,12,13,14,15,2.70
2016,12,13,14,16,2.70
2016,12,13,14,17,2.70
2016,12,13,14,18,2.70
2016,12,13,14,19,2.70
2016,12,13,14,20,2.70
2016,12,13,14,21,2.80
2016,12,13,14,22,2.80
2016,12,13,14,23,2.80
2016,12,13,14,24,2.80
2016,12,13,14,25,2.80
2016,12,13,14,26,2.70
2016,12,13,14,27,2.70
2016,12,13,14,28,2.70
2016,12,13,14,29,2.70
2016,12,13,14,30,2.60
2016,12,13,14,31,2.60
2016,12,13,14,32,2.60
2016,12,13,14,33,2.50
2016,12,13,14,34,2.50
2016,12,13,14,35,2.50
2016,12,13,14,36,2.50
2016,12,13,14,37,2.50
2016,12,13,14,38,2.50
2016,12,13,14,39,2.50
2016,12,13,14,40,2.50
2016,12,13,14,41,2.60
2016,12,13,14,42,2.60
2016,12,13,14,43,2.60
2016,12,13,14,44,2.60
2016,12,13,14,45,2.60
2016,12,13,14,46,2.60
2016,12,13,14,47,2.50
2016,12,13,14,48,2.50
2016,12,13,14,49,2.50
2016,12,13,14,50,2.40
2016,12,13,14,51,2.40
2016,12,13,14,52,2.40
2016,12,13,14,53,2.40
2016,12,13,14,54,2.40
2016,12,13,14,55,2.30
2016,12,13,14,56,2.30
2016,12,13,14,57,2.30
2016,12,13,14,58,2.30
2016,12,13,14,59,2.30
2016,12,13,15,00,2.30
2016,12,13,15,01,2.20
2016,12,13,15,02,2.20
2016,12,13,15,03,2.20
2016,12,13,15,04,2.20
2016,12,13,15,05,2.20
2016,12,13,15,06,2.20
2016,12,13,15,07,2.20
2016,12,13,15,08,2.20
2016,12,13,15,09,2.20
2016,12,13,15,10,2.20
2016,12,13,15,11,2.20
2016,12,13,15,12,2.20
2016,12,13,15,13,2.20
2016,12,13,15,14,2.20
2016,12,13,15,15,2.30
2016,12,13,15,16,2.30
2016,12,13,15,17,2.30
2016,12,13,15,18,2.30
2016,12,13,15,19,2.30
2016,12,13,15,20,2.30
2016,12,13,15,21,2.30
2016,12,13,15,22,2.30
2016,12,13,15,23,2.30
2016,12,13,15,24,2.40
2016,12,13,15,25,2.40
2016,12,13,15,26,2.40
2016,12,13,15,27,2.40
2016,12,13,15,28,2.40
2016,12,13,15,29,2.40
2016,12,13,15,30,2.30
2016,12,13,15,31,2.30
2016,12,13,15,32,2.30
2016,12,13,15,33,2.30
2016,12,13,15,34,2.30
2016,12,13,15,35,2.30
2016,12,13,15,36,2.30
2016,12,13,15,37,2.30
2016,12,13,15,38,2.30
2016,12,13,15,39,2.30
2016,12,13,15,40,2.30
2016,12,13,15,41,2.30
2016,12,13,15,42,2.30
2016,12,13,15,43,2.20
2016,12,13,15,44,2.20
2016,12,13,15,45,2.20
2016,12,13,15,46,2.20
2016,12,13,15,47,2.20
2016,12,13,15,48,2.20
2016,12,13,15,49,2.20
2016,12,13,15,50,2.20
2016,12,13,15,51,2.20
2016,12,13,15,52,2.20
2016,12,13,15,53,2.20
2016,12,13,15,54,2.10
2016,12,13,15,55,2.10
2016,12,13,15,56,2.10
2016,12,13,15,57,2.10
2016,12,13,15,58,2.10
2016,12,13,15,59,2.10
2016,12,13,16,00,2.10
2016,12,13,16,01,2.10
2016,12,13,16,02,2.10
2016,12,13,16,03,2.10
2016,12,13,16,04,2.10
2016,12,13,16,05,2.10
2016,12,13,16,06,2.10
2016,12,13,16,07,2.10
2016,12,13,16,08,2.10
2016,12,13,16,09,2.10
2016,12,13,16,10,2.10
2016,12,13,16,11,2.10
2016,12,13,16,12,2.10
2016,12,13,16,13,2.10
2016,12,13,16,14,2.10
2016,12,13,16,15,2.10
2016,12,13,16,16,2.10
